STARLINK-33804, 63511

Orbit data source: Space-Track

STARLINK-33804, 63511 is a payload satellite owned by SpaceX/Seattle (US) in LEO that was launched on Mon, 07 Apr 2025 UTC via an FALCON 9 launch vehicle from the Air Force Western Test Range (AFWTR). Payload-class satellites include a variety of spacecraft equipped with specific instruments for various scientific and technological missions. These include communications satellites like Starlink; space stations such as the ISS; scientific satellites like the Hubble; Earth observation satellites from companies like Planet Labs, Umbra, and HawkEye 360; GPS; miniature CubeSats for education and research; and military/defense satellites.

Loading next visibility...
Identifier
63511, 2025-071U
Orbit
LEO
Country
Flag of USUS
Related business
Manufacturer
SpaceX/Seattle
Mission
Operational Commercial Communications
Bus & Motor
STARLINK V2MO, Unknown motor
Mass
575 kg wet, ~530 kg dry
Launch date (UTC)
2025-04-07 (1 year ago)
Launch vehicle
FALCON 9
Launch site
Air Force Western Test Range (AFWTR)
Object type
Payload
Rocket body
Debris
Shape & HBR
Box + 2 Pan, 17.7 m
Radar Cross Section
36.964 m², Large (>1 m²)

Expand to show TLE details & history
Last TLE update: 13 hours ago

TLE from 13 hours ago
0 STARLINK-33804
1 63511U 25071U   26171.30624324  .00015360  00000-0  50553-3 0  9998
2 63511  53.1600  23.0537 0001426  94.8435 265.2729 15.31710504 68115
Epoch: 2026-06-20T07:20Z
TLE epoch observation values (Epoch: 2026-06-20T07:20:59.415Z)
Latitude
-0.00007°
Longitude
4.28333°
Altitude
471.69 km
Speed
7.631 km/s
True Right ascension
01h 32m 12s
True Declination
0° 00' 00"
Sunlit
Object was in daylight at epoch
Visualization orbit readout
Latitude
Unknown
Longitude
Unknown
Altitude
Unknown
Speed
Unknown
Apparent Right ascension
Unknown
Apparent Declination
Unknown
Sunlit
N/A
Visualization observer readout
Local Sidereal Time
07:23:24
Azimuth
Unknown
Elevation
Unknown
Doppler factor
Unknown
Orbital elements
Apogee altitude
471.942 km
Perigee altitude
469.989 km
Semi-major axis
6,849.102 km
Eccentricity
0.00014
Inclination
53.16°
RAAN
23.0537°
Arg. of periapsis
94.8435°
True anomaly
265.25662°
Mean anomaly
265.2729°
Eccentric anomaly
265.26476°
Mean motion
3.82906 °/min
Orbital period
94.02 mins
BSTAR
0.00050553
Loading maneuver chart data...
Computing Atmospheric mass density...
Loading historical data...
Loading historical data...
Loading historical data...
Loading historical data...
Loading historical data...
Loading historical data...
Loading historical data...

Documentation

Showing up to 5 results
|